Home   Weather   Sagamihara   Past weeks

Flag for Japan Past Weather in Sagamihara, Japan — Yesterday and Last 2 Weeks

Now
29 °F

Clear.


Feels Like: 23 °F
Forecast: 36 / 46 °F
Wind: 5 mph from North

Location: Yokota Ab

Current Time: Jan 18, 2017 at 6:43:20 am

Latest Report: Jan 18, 2017 at 5:58 am


Visibility: 10 mi

Pressure: 30.44 "Hg

Humidity: 65%

Dew Point: 18 °F

Location of SagamiharaLocation

Past Weather in Sagamihara — Graph

°F

Sagamihara Temperature Yesterday

Maximum temperature yesterday: 50 °F (at 12:58 pm)
Minimum temperature yesterday: 29 °F (at 6:58 am)
Average temperature yesterday: 39 °F

High & Low Weather Summary for the Past Weeks

 TemperatureHumidityPressure
High58 °F (Jan 3, 1:58 pm)93% (Jan 8, 4:33 pm)30.42 "Hg (Jan 8, 4:33 pm)
Low20 °F (Jan 16, 5:58 am)15% (Jan 16, 1:30 pm)29.53 "Hg (Jan 14, 1:29 pm)
Average39 °F57%29.93 "Hg
* Reported Jan 3 4:58 am — Jan 18 4:58 am, Sagamihara, Weather by CustomWeather, © 2017

Note: Actual official high and low records may vary slightly from our data, if they occured in-between our weather recording intervals... More about our weather records

Advertising

Sagamihara Weather History for the Previous 24 Hours

Scroll right to see more
 ConditionsComfort  
Time TempWeatherWind HumidityBarometerVisibility
4:58 am
Wed, Jan 18
31 °FClear.No wind68%30.42 "Hg10 mi
3:58 am30 °FClear.No wind71%30.41 "Hg10 mi
2:58 am31 °FClear.No wind73%30.41 "Hg10 mi
1:58 am30 °FClear.No wind75%30.41 "Hg10 mi
12:58 am33 °FClear.No wind72%30.40 "Hg10 mi
11:58 pm
Tue, Jan 17
33 °FPassing clouds.No wind71%30.39 "Hg10 mi
10:58 pm35 °FClear.No wind70%30.39 "Hg10 mi
9:58 pm36 °FPassing clouds.3 mph67%30.38 "Hg10 mi
8:58 pm36 °FPassing clouds.No wind65%30.37 "Hg10 mi
7:58 pm36 °FClear.No wind66%30.36 "Hg10 mi
6:58 pm38 °FPassing clouds.6 mph61%30.35 "Hg10 mi
5:58 pm40 °FPassing clouds.8 mph57%30.31 "Hg10 mi
4:58 pm43 °FClear.14 mph51%30.28 "Hg10 mi
3:58 pm48 °FSunny.16 mph39%30.25 "Hg10 mi
2:58 pm49 °FSunny.6 mph34%30.25 "Hg10 mi
1:58 pm49 °FPassing clouds.10 mph34%30.22 "Hg10 mi
12:58 pm50 °FScattered clouds.14 mph32%30.21 "Hg10 mi
11:58 am48 °FPartly sunny.13 mph34%30.23 "Hg10 mi
10:58 am49 °FPassing clouds.14 mph31%30.24 "Hg10 mi
9:58 am47 °FSunny.12 mph32%30.27 "Hg10 mi
8:58 am46 °FPartly sunny.10 mph39%30.25 "Hg10 mi
7:58 am37 °FSunny.No wind55%30.21 "Hg10 mi
6:58 am29 °FSunny.8 mph67%30.20 "Hg10 mi
Weather by CustomWeather, © 2017

See weather overviewHow to use our weather pages